sat.trackr.live / text

‹ back to catalog

STARLINK-5058

NORAD 55456 · 2023-015H

PAYLOAD ACTIVE UNKNOWN

§ Identity

Operator
Country
US
Launch date
2023-02-02
Launch site
AFETR
Launch vehicle
Mass (kg)
RCS (m²)

Purposes: comms

External: N2YO · Heavens-Above · Gunter

§ Orbital elements

Epoch: 2026-05-24T16:09:28.124352Z

Period
94.27 min
Inclination
43.0009°
Eccentricity
0.0001274
Mean motion
15.27572846 rev/d
Perigee alt
482.2 km
Apogee alt
483.9 km
Semi-major
6,861.2 km
B*
4.3128e-5
RAAN
259.5333°
Arg perigee
275.0497°
Mean anomaly
85.0210°
Rev number
18,234

§ Raw data

STARLINK-50581 55456U 23015H   26144.67324218  .00000925  00000+0  43128-4 0  99932 55456  43.0009 259.5333 0001274 275.0497  85.0210 15.27572846182342

JSON: /api/v1/satellites/55456 · /tle

For live sub-satellite position, see the globe view (requires WebGL).

§ Visibility from observer

Set your observer location to see the next 7 days of passes ≥ 10°. The values pass through the URL so the page stays shareable.

No JS? Fill the form by hand. The geolocation button needs JavaScript.